STARLINK-36089

Last updated on Fri Dec 19 2025 00:02:08 GMT+0000 (Coordinated Universal Time)

1 66947U 25286Y 25352.58336806 -.01449422 00000+0 -76311-2 0 9998 2 66947 53.1550 20.9725 0001172 69.2935 84.6855 15.82620716 2931
UTC large
Height (km)
Speed (km/s)
/
Latitude / Longitude
Inclination (degrees)
Orbital Period (minutes)
Azimuth
Elevation
Range (km)
Doppler Factor

Next 0 passes for location: London (51.5072 / 0.1276)

Sorry there are no passes over London.